Weather History for Ozona, TX

Change the Weather History Date:

Tuesday, June 4, 2013

  Actual Average Record
Temperature  
Mean Temperature 84 °F -  
Max Temperature 98 °F 87 °F 98 °F (2013)
Min Temperature 71 °F 63 °F 69 °F (2014)
Cooling Degree Days 20    
Growing Degree Days 34 (Base 50)    
Moisture  
Dew Point 58 °F    
Average Humidity 45    
Maximum Humidity 73    
Minimum Humidity 23    
Precipitation  
Precipitation 0.00 in - - ()
Sea Level Pressure  
Sea Level Pressure 29.89 in    
Wind  
Wind Speed 10 mph (South)    
Max Wind Speed 13 mph    
Max Gust Speed 16 mph    
Visibility 10 miles    
Events      
Averages and records for this station are not official NWS values.
T = Trace of Precipitation, MM = Missing Value Source: NWS Daily Summary

Daily Weather History Graph

Daily Weather History Graph

Search for Another Location

Airport:

Trip Planner

Search our weather history database for the weather conditions in past years. The results will help you decide how hot, cold, wet, or windy it might be!

Date:

Astronomy

Jun. 04, 2013 Rise Set
Actual Time 6:41 AM CDT 8:44 PM CDT
Civil Twilight 6:14 AM CDT 9:12 PM CDT
Nautical Twilight 5:41 AM CDT 9:45 PM CDT
Astronomical Twilight 5:05 AM CDT 10:21 PM CDT
Moon 3:59 AM CDT (6/4) 5:26 PM CDT (6/4)
Length of Visible Light 14h 57m
Length of Day
14h 02m
Waning Crescent, 14% of the Moon is Illuminated
Jun 4
Waning Crescent
Jun 8
New
Jun 16
First Quarter
Jun 23
Full
Jun 29
Last Quarter

Hourly Weather History & Observations

Time (CDT) Temp. Heat Index Dew Point Humidity Pressure Visibility Wind Dir Wind Speed Gust Speed Precip Events Conditions
12:15 AM 78.8 °F - 59.0 °F 51% 29.93 in 10.0 mi South 11.5 mph - N/A   Clear
12:35 AM 78.8 °F - 59.0 °F 51% 29.93 in 10.0 mi South 10.4 mph - N/A   Clear
12:55 AM 78.8 °F - 59.0 °F 51% 29.92 in 10.0 mi South 11.5 mph 16.1 mph N/A   Clear
1:15 AM 78.8 °F - 60.8 °F 54% 29.93 in 10.0 mi South 10.4 mph 16.1 mph N/A   Clear
1:35 AM 77.0 °F - 60.8 °F 57% 29.92 in 10.0 mi South 12.7 mph 16.1 mph N/A   Clear
1:55 AM 77.0 °F - 60.8 °F 57% 29.91 in 10.0 mi SSE 10.4 mph - N/A   Clear
2:15 AM 77.0 °F - 60.8 °F 57% 29.91 in 10.0 mi SSE 12.7 mph - N/A   Clear
2:35 AM 77.0 °F - 60.8 °F 57% 29.91 in 10.0 mi South 11.5 mph - N/A   Clear
2:55 AM 77.0 °F - 59.0 °F 54% 29.91 in 10.0 mi South 12.7 mph - N/A   Clear
3:15 AM 75.2 °F - 59.0 °F 57% 29.91 in 10.0 mi South 8.1 mph - N/A   Clear
3:35 AM 75.2 °F - 59.0 °F 57% 29.90 in 10.0 mi South 12.7 mph - N/A   Clear
3:55 AM 75.2 °F - 59.0 °F 57% 29.90 in 10.0 mi South 12.7 mph - N/A   Clear
4:15 AM 73.4 °F - 59.0 °F 61% 29.89 in 10.0 mi South 11.5 mph - N/A   Clear
4:35 AM 73.4 °F - 59.0 °F 61% 29.90 in 10.0 mi SSW 5.8 mph - N/A   Clear
4:55 AM 71.6 °F - 59.0 °F 64% 29.89 in 10.0 mi South 5.8 mph - N/A   Clear
5:15 AM 73.4 °F - 59.0 °F 61% 29.90 in 10.0 mi South 4.6 mph - N/A   Clear
5:35 AM 73.4 °F - 59.0 °F 61% 29.89 in 10.0 mi South 8.1 mph - N/A   Clear
5:55 AM 71.6 °F - 60.8 °F 69% 29.90 in 10.0 mi South 6.9 mph - N/A   Clear
6:15 AM 73.4 °F - 60.8 °F 65% 29.91 in 10.0 mi South 5.8 mph - N/A   Clear
6:35 AM 71.6 °F - 60.8 °F 69% 29.91 in 10.0 mi South 8.1 mph - N/A   Clear
6:55 AM 71.6 °F - 60.8 °F 69% 29.91 in 10.0 mi South 5.8 mph 9.2 mph N/A   Clear
7:15 AM 71.6 °F - 62.6 °F 73% 29.91 in 10.0 mi North - - N/A   Unknown
7:35 AM 73.4 °F - 62.6 °F 69% 29.91 in 10.0 mi North - - N/A   Clear
7:55 AM 73.4 °F - 62.6 °F 69% 29.91 in 10.0 mi North - - N/A   Clear
8:15 AM 73.4 °F - 64.4 °F 73% 29.92 in 10.0 mi North - - N/A   Clear
8:35 AM 75.2 °F - 64.4 °F 69% 29.92 in 10.0 mi North - - N/A   Clear
8:55 AM 77.0 °F - 64.4 °F 65% 29.92 in 10.0 mi North - - N/A   Clear
9:15 AM 78.8 °F - 64.4 °F 61% 29.93 in 10.0 mi North - - N/A   Unknown
9:35 AM 78.8 °F - 64.4 °F 61% 29.93 in 10.0 mi North - - N/A   Clear
9:55 AM 80.6 °F 82.3 °F 64.4 °F 58% 29.93 in 10.0 mi North - - N/A   Clear
10:15 AM 80.6 °F 82.3 °F 64.4 °F 58% 29.93 in 10.0 mi North - - N/A   Clear
10:35 AM 82.4 °F 83.9 °F 64.4 °F 54% 29.92 in 10.0 mi North - - N/A   Clear
10:55 AM 84.2 °F 85.6 °F 64.4 °F 51% 29.93 in 10.0 mi North - - N/A   Clear
11:15 AM 86.0 °F 87.3 °F 64.4 °F 48% 29.92 in 10.0 mi North - - N/A   Clear
11:35 AM 86.0 °F 86.6 °F 62.6 °F 45% 29.93 in 10.0 mi North - - N/A   Clear
11:55 AM 87.8 °F 88.5 °F 62.6 °F 43% 29.92 in 10.0 mi North - - N/A   Clear
12:15 PM 89.6 °F 90.1 °F 62.6 °F 40% 29.92 in 10.0 mi North - - N/A   Clear
12:35 PM 91.4 °F 92.1 °F 62.6 °F 38% 29.92 in 10.0 mi North - - N/A   Clear
12:55 PM 91.4 °F 91.4 °F 60.8 °F 36% 29.91 in 10.0 mi North - - N/A   Clear
1:15 PM 91.4 °F 91.4 °F 60.8 °F 36% 29.91 in 10.0 mi North - - N/A   Clear
1:35 PM 95.0 °F 95.2 °F 60.8 °F 32% 29.90 in 10.0 mi North - - N/A   Clear
2:15 PM 96.8 °F 96.2 °F 59.0 °F 28% 29.89 in 10.0 mi North - - N/A   Clear
2:35 PM 96.8 °F 96.2 °F 59.0 °F 28% 29.88 in 10.0 mi North - - N/A   Clear
2:55 PM 95.0 °F 94.4 °F 59.0 °F 30% 29.88 in 10.0 mi North - - N/A   Clear
3:15 PM 93.2 °F 92.6 °F 59.0 °F 32% 29.87 in 10.0 mi North - - N/A   Clear
3:35 PM 95.0 °F 94.4 °F 59.0 °F 30% 29.87 in 10.0 mi North - - N/A   Clear
3:55 PM 96.8 °F 96.2 °F 59.0 °F 28% 29.86 in 10.0 mi North - - N/A   Clear
4:15 PM 96.8 °F 96.2 °F 59.0 °F 28% 29.85 in 10.0 mi North - - N/A   Clear
4:55 PM 98.6 °F 97.6 °F 57.2 °F 25% 29.84 in 10.0 mi North - - N/A   Clear
5:15 PM 96.8 °F 95.1 °F 55.4 °F 25% 29.83 in 10.0 mi North - - N/A   Clear
5:35 PM 96.8 °F 95.1 °F 55.4 °F 25% 29.82 in 10.0 mi North - - N/A   Clear
5:55 PM 96.8 °F 94.4 °F 53.6 °F 23% 29.82 in 10.0 mi North - - N/A   Clear
6:15 PM 96.8 °F 94.4 °F 53.6 °F 23% 29.83 in 10.0 mi North - - N/A   Clear
6:35 PM 96.8 °F 94.4 °F 53.6 °F 23% 29.84 in 10.0 mi North - - N/A   Clear
6:55 PM 95.0 °F - 51.8 °F 23% 29.84 in 10.0 mi North - - N/A   Clear
7:15 PM 95.0 °F - 51.8 °F 23% 29.85 in 10.0 mi North - - N/A   Clear
7:35 PM 93.2 °F - 51.8 °F 24% 29.85 in 10.0 mi North - - N/A   Clear
7:55 PM 91.4 °F - 51.8 °F 26% 29.84 in 10.0 mi North - - N/A   Clear
8:15 PM 91.4 °F - 51.8 °F 26% 29.84 in 10.0 mi North - - N/A   Clear
8:35 PM 89.6 °F - 51.8 °F 27% 29.85 in 10.0 mi North - - N/A   Clear
8:55 PM 89.6 °F - 51.8 °F 27% 29.85 in 10.0 mi North - - N/A   Clear
9:15 PM 87.8 °F - 51.8 °F 29% 29.86 in 10.0 mi North - - N/A   Clear
9:35 PM 87.8 °F - 51.8 °F 29% 29.86 in 10.0 mi North - - N/A   Clear
9:55 PM 86.0 °F - 50.0 °F 29% 29.85 in 10.0 mi North - - N/A   Clear
10:15 PM 86.0 °F - 50.0 °F 29% 29.86 in 10.0 mi North - - N/A   Clear
10:35 PM 84.2 °F - 50.0 °F 30% 29.87 in 10.0 mi North - - N/A   Clear
10:55 PM 84.2 °F - 50.0 °F 30% 29.87 in 10.0 mi North - - N/A   Clear
11:15 PM 82.4 °F - 50.0 °F 32% 29.88 in 10.0 mi North - - N/A   Clear
11:35 PM 82.4 °F - 50.0 °F 32% 29.89 in 10.0 mi North - - N/A   Clear
11:55 PM 80.6 °F - 51.8 °F 37% 29.89 in 10.0 mi North - - N/A   Clear